Content
SEND FEEDBACK

Daily
Averages
Monthly
Summary
United States of America

BOSTON, MASSACHUSETTS


Home > North America > United States > Massachusetts
Elevation: 4 feet     Latitude: 42 22N     Longitude: 071 02W

WEATHER
 
SELECT A DAY
Number of Records: 202,613;   Date Range: 1/1/95 - 7/28/14
 
SHARE

PRINT THIS DATA

[ ← Previous Day ]
WEATHER ALMANAC - SEPTEMBER 21, 2013
[ Next Day → ]
[ °C ]   °F
Weather ElementAverageHighLow
Temperature65.3 °F75 °F (2:54 pm)57.2 °F (2:29 am)
Dewpoint58.5 °F63 °F (8:54 pm)53.6 °F (2:29 am)
Humidity79.9 %100 % (7:03 am)53 % (3:54 pm)
Barometer29.94 in30.04 in (1:54 am)29.74 in (11:54 pm)
Wind Speed11.3 mph20.7 mph (3:54 pm)
Wind Gust31.1 mph (3:54 pm)
Weather ElementAverage
Visibility8.6 mi
Wind DirectionSSW (198.7 °)

Weather ElementTotal
Precipitation---
Cooling Degree Days1.1 (Base 65)
Growing Degree Days16.1 (Base 50)
Averaged from 39 records on September 21, 2013
WEATHER CONDITIONS BREAKOUT
WIND DIRECTION BREAKOUT
WEATHER BY HOUR - SEPTEMBER 21, 2013
[ °C ]   °F
Local TimeTemperatureDewpointHumidityBarometerVisibilityWind DirectionWind SpeedGust SpeedPrecipitationEventsConditions
1:54 AM57.9 °F54.0 °F87 %30.04 in10.0 miSSW (200°)3.5 mphClear
2:29 AM57.2 °F53.6 °F88 %30.03 in10.0 miSW (230°)6.9 mphPartly Cloudy
2:33 AM57.2 °F55.4 °F94 %30.03 in10.0 miWSW (240°)6.9 mphMostly Cloudy
2:54 AM59.0 °F57.0 °F93 %30.03 in9.0 miSW (230°)8.1 mphOvercast
3:32 AM60.8 °F57.2 °F88 %30.03 in10.0 miSW (230°)11.5 mphOvercast
3:43 AM60.8 °F57.2 °F88 %30.03 in10.0 miWSW (240°)9.2 mphOvercast
3:54 AM60.1 °F57.0 °F90 %30.03 in10.0 miWSW (250°)10.4 mphOvercast
4:44 AM60.8 °F57.2 °F88 %30.02 in10.0 miSW (220°)8.1 mphMostly Cloudy
4:54 AM60.1 °F57.0 °F90 %30.02 in10.0 miSW (230°)9.2 mphMostly Cloudy
5:01 AM60.8 °F57.2 °F88 %30.02 in10.0 miSW (230°)6.9 mphScattered Clouds
5:54 AM57.9 °F55.9 °F93 %30.00 in10.0 miSouth (170°)5.8 mphMostly Cloudy
6:46 AM57.2 °F55.4 °F94 %30.00 in6.0 miSouth (180°)5.8 mphMostly Cloudy
6:54 AM57.9 °F55.9 °F93 %30.00 in5.0 miSouth (170°)6.9 mphMostly Cloudy
7:03 AM57.2 °F57.2 °F100 %30.00 in2.0 miSouth (190°)9.2 mphMostly Cloudy
7:07 AM59.0 °F57.2 °F94 %30.00 in0.5 miSouth (180°)8.1 mphOvercast
7:36 AM60.8 °F57.2 °F88 %30.00 in2.0 miSouth (180°)9.2 mphOvercast
7:54 AM61.0 °F59.0 °F93 %30.00 in2.0 miSouth (190°)6.9 mphOvercast
8:03 AM60.8 °F59.0 °F94 %30.00 in5.0 miSSW (200°)6.9 mphOvercast
8:42 AM62.6 °F59.0 °F88 %30.00 in7.0 miSSW (210°)6.9 mphMostly Cloudy
8:54 AM64.0 °F59.0 °F84 %30.00 in7.0 miSouth (190°)6.9 mphMostly Cloudy
9:54 AM69.1 °F59.0 °F70 %29.98 in10.0 miSSW (200°)9.2 mphMostly Cloudy
10:13 AM69.8 °F57.2 °F64 %29.98 in10.0 miSSW (200°)12.7 mphMostly Cloudy
10:54 AM70.0 °F57.9 °F65 %29.96 in10.0 miSSW (200°)13.8 mphMostly Cloudy
11:12 AM71.6 °F57.2 °F60 %29.95 in10.0 miSSW (200°)18.4 mphMostly Cloudy
11:54 AM73.0 °F59.0 °F61 %29.93 in10.0 miSSW (200°)15.0 mphMostly Cloudy
12:54 PM73.9 °F59.0 °F59 %29.91 in10.0 miSSW (200°)19.6 mph23.0 mphMostly Cloudy
1:54 PM73.0 °F60.1 °F64 %29.89 in10.0 miSouth (190°)13.8 mphMostly Cloudy
2:54 PM75.0 °F59.0 °F57 %29.86 in10.0 miSSW (200°)19.6 mphScattered Clouds
3:54 PM75.0 °F57.0 °F53 %29.84 in10.0 miSSW (200°)20.7 mph31.1 mphScattered Clouds
4:54 PM73.9 °F57.9 °F57 %29.82 in10.0 miSouth (190°)19.6 mphMostly Cloudy
5:54 PM73.0 °F60.1 °F64 %29.81 in10.0 miSouth (190°)18.4 mph29.9 mphMostly Cloudy
6:54 PM71.1 °F61.0 °F70 %29.81 in10.0 miSouth (190°)18.4 mphMostly Cloudy
7:54 PM70.0 °F61.0 °F73 %29.81 in10.0 miSouth (170°)12.7 mphMostly Cloudy
8:54 PM70.0 °F63.0 °F78 %29.80 in10.0 miSouth (180°)13.8 mphMostly Cloudy
9:19 PM69.8 °F62.6 °F78 %29.79 in10.0 miSouth (180°)15.0 mphOvercast
9:54 PM69.1 °F63.0 °F81 %29.78 in10.0 miSouth (170°)11.5 mphMostly Cloudy
10:14 PM68.0 °F62.6 °F83 %29.78 in10.0 miSouth (180°)12.7 mphScattered Clouds
10:54 PM68.0 °F63.0 °F84 %29.76 in10.0 miSouth (170°)10.4 mph0.00 inMostly Cloudy
11:54 PM69.1 °F63.0 °F81 %29.74 in10.0 miSouth (180°)13.8 mphOvercast
Hourly data recorded from KBOS, located miles away from Boston, Massachusetts







STORIES FROM OUR PARTNERS